259P/Garradd (2026)

Japanese version
Home page
Updated on July 12, 2026

---------------------------------------------------------------------

* Profile

* Orbital Elements

Epoch 2026 June 9.0 TT = JDT 2461200.5
T 2026 Aug. 11.95285 TT                                 Pike
q   1.8051629            (2000.0)            P               Q
n   0.21848798     Peri.  257.37277     +0.59753403     +0.77271795
a   2.7301364      Node    51.43493     -0.58730070     +0.60359082
e   0.3388012      Incl.   15.89548     -0.54592212     +0.19643088
P   4.51
From 79 observations 2008 Sept. 2-2026 July 4, mean residual 0".4.

* Magnitudes Graph

        m1 = 11.0 + 5 log d + 30.0 log r(t - 50)

---------------------------------------------------------------------

The orbital elements are published on M.P.E.C. 2026-N12.
The magnitudes graphs are made with Comet for Windows.

---------------------------------------------------------------------

Copyright(C) Seiichi Yoshida (comet@aerith.net). All rights reserved.